Regional Weather Roundup
Issued by NWS

Home | Current Version | Previous Version | Text Only | Print | Product List | Glossary Off
Versions: 1 2 3 4 5 6 7 8 9 10 11 12 13 14 15 16 17 18 19 20 21 22 23 24 25 26 27 28 29 30 31 32 33 34 35 36 37 38 39 40 41 42 43 44 45 46 47 48 49 50

000
ASUS43 KMPX 180401
RWRMN
WEATHER ROUNDUP FOR MINNESOTA
NATIONAL WEATHER SERVICE TWIN CITIES/CHANHASSEN MN
1000 PM CST SAT FEB 17 2018


NOTE: "FAIR" INDICATES FEW OR NO CLOUDS BELOW 12,000 FEET WITH NO
SIGNIFICANT WEATHER AND/OR OBSTRUCTIONS TO VISIBILITY. N/A MEANS
CURRENT SKY AND/OR WEATHER CONDITIONS ARE NOT AVAILABLE.

MNZ060>063-068>070-180500-
   Twin Cities Metro

CITY           SKY/WX    TMP DP  RH WIND       PRES   REMARKS
TWIN CITIES    FAIR      22   7  52 NW6       30.06R WCI  14
ST PAUL        FAIR      22   6  50 NW8       30.07R WCI  12
CRYSTAL        FAIR      20   5  52 W5        30.04S WCI  13
BLAINE         FAIR      23   9  54 NW7       30.04S WCI  15
LAKEVILLE      FAIR      19   9  63 CALM      30.06S
EDEN PRAIRIE   FAIR      23   5  46 NW5       30.05S WCI  17
SOUTH ST PAUL  FAIR      25   5  41 NW5       30.06S WCI  20
LAKE ELMO      FAIR      23   9  54 NW3       30.06S
$$
MNZ001>005-007-008-013>017-022>024-027-028-180500-
   Northwest Minnesota

CITY           SKY/WX    TMP DP  RH WIND       PRES   REMARKS
BEMIDJI        CLOUDY    11   4  72 SW5       29.92F WCI   3
HALLOCK        FAIR       7   0  72 W5        29.96F WCI  -2
WARROAD        FAIR       0  -6  78 CALM      29.94S
THIEF RVR FALL FLURRIES  11   3  70 NW7       29.96R WCI   0
CROOKSTON      CLOUDY    12   7  79 N5        29.99R WCI   4
FOSSTON        CLOUDY    10   3  72 CALM      29.96R
DETROIT LAKES  FAIR      10   5  79 CALM      29.97S
MOORHEAD       FAIR      14   7  73 SW8       30.00S WCI   3
PARK RAPIDS    FAIR       8   0  69 S5        29.94F WCI   0
MAHNOMEN       CLOUDY    10   6  81 S8        29.95S WCI  -1
$$
MNZ006-009>011-018-025>026-180500-
   North Central Minnesota

CITY           SKY/WX    TMP DP  RH WIND       PRES   REMARKS
BAUDETTE       FAIR       4  -6  63 CALM      29.92F
FLAG ISLAND    FAIR       3  -9  55 CALM      29.92F
INTL FALLS     MOCLDY     9   0  67 NW13      29.92R WCI  -7
WASKISH        CLOUDY    12   7  79 W7        29.94R WCI   2
BIG FORK       MOCLDY    10   1  67 SW6       29.92S WCI   1
LONGVILLE      FAIR       3   0  85 CALM      29.96F
GRAND RAPIDS   FAIR      12   3  67 W5        29.96S WCI   4
CRANE LAKE     CLOUDY    12   1  62 W6        29.93R WCI   3
ORR            CLOUDY    10   1  67 SW5       29.88S WCI   2
COOK           CLOUDY    12   3  67 W6        29.91F WCI   3
WALKER         MOCLDY    11   2  68 S5        29.95S WCI   3
$$
MNZ012-019>021-037-180500-
   Northeast Minnesota

CITY           SKY/WX    TMP DP  RH WIND       PRES   REMARKS
DULUTH         FAIR      15   3  59 NW9       29.93R WCI   3
ELY            FAIR      10   3  72 W7        29.90S WCI   0
HIBBING        FAIR      10   0  63 W3        29.93S
EVELETH        FAIR     N/A N/A N/A SW5       29.94S
DULUTH HARBOR  FAIR      21   9  58 W15       30.01R WCI   8
TWO HARBORS    FAIR      19   7  58 W6        29.94R WCI  11
G MARAIS ARPRT CLOUDY    12   0  57 W10G18    29.83R WCI  -1
$$
MNZ029>031-032-039>041-046>048-054>057-064-180500-
   West Central Minnesota

CITY           SKY/WX    TMP DP  RH WIND       PRES   REMARKS
FERGUS FALLS   FAIR      12   7  79 S6        30.00F WCI   3
WHEATON        CLOUDY    12   3  67 S3        30.03F
MORRIS         CLOUDY    10   1  67 CALM      30.01S
ALEXANDRIA     FAIR      11   3  70 CALM      30.00S
ELBOW LAKE     FAIR      12   6  77 SE3       30.00F
WADENA         FAIR       3  -2  78 CALM      29.97F
GLENWOOD       FAIR      12   5  73 S3        30.02R
APPLETON       CLOUDY    16   7  67 SW5       30.04R WCI   9
BENSON         CLOUDY    12   3  67 CALM      30.04F
ORTONVILLE     CLOUDY    19   7  58 CALM      30.02S
MADISON        CLOUDY    19  10  68 CALM      30.04S
WILLMAR        FAIR      14   5  67 CALM      30.05F
$$
MNZ033>034-036-042>043-049>051-058-059-180500-
   Central Minnesota

CITY           SKY/WX    TMP DP  RH WIND       PRES   REMARKS
ST CLOUD       FAIR      16   5  62 W3        30.03S
SAUK CENTRE    FAIR      10   4  74 CALM      30.02S
PAYNESVILLE    FAIR      11   5  75 CALM      30.04S
AITKIN         FAIR      10   1  67 CALM      29.98R
PINE RIVER     FAIR       7   0  72 CALM      30.01R
BRAINERD       FAIR      13   1  59 SW5       29.99S WCI   5
STAPLES        FAIR       9   1  72 CALM      29.98S
LONG PRAIRIE   FAIR      10   3  72 CALM      30.01S
LITTLE FALLS   FAIR      10   0  61 CALM      30.02F
LITCHFIELD     FAIR      18   7  62 CALM      30.04S
BUFFALO        FAIR      20   6  52 CALM      30.06S
MAPLE LAKE     FAIR      16   8  69 CALM      30.05S
HUTCHINSON     FAIR      15  10  80 CALM      30.05S
$$
MNZ037-044-045-052-053-180500-
   East Central Minnesota

CITY           SKY/WX    TMP DP  RH WIND       PRES   REMARKS
PRINCETON      FAIR      16   5  62 NW3       30.03F
MORA           FAIR      18   5  57 W5        30.05R WCI  11
CAMBRIDGE      FAIR      19   7  58 CALM      30.05S
RUSH CITY      FAIR      17   5  59 W5        30.04R WCI  10
MOOSE LAKE     FAIR      18   5  57 W5        29.97S WCI  11
HINCKLEY       FAIR      16   5  62 W7        30.02R WCI   6
CLOQUET        FAIR      16   1  53 W6        29.96R WCI   7
MCGREGOR       FAIR      18   5  57 W3        29.98S
$$
MNZ071>073-080-081-089-090-097-098-180500-
   Southwest Minnesota

CITY           SKY/WX    TMP DP  RH WIND       PRES   REMARKS
MONTEVIDEO     CLOUDY    19   7  58 W3        30.05R
GRANITE FALLS  CLOUDY    17  10  73 SW7       30.07R WCI   7
CANBY          CLOUDY    23  16  75 SW3       30.04F
MARSHALL       CLOUDY    22  16  78 SW8       30.06R WCI  12
REDWOOD FALLS  CLEAR     21  12  68 W3        30.05S
OLIVIA         CLOUDY    18  10  73 CALM      30.04S
PIPESTONE      MOCLDY    21  18  86 SW8       30.04R WCI  12
WINDOM         CLEAR     19   7  58 SW6       30.06S WCI  11
WORTHINGTON    CLEAR     18  16  92 SW10      30.08R WCI   6
JACKSON        CLEAR     19  16  86 SW5       30.08R WCI  13
TRACY          CLEAR     23  19  85 SW6       30.05R WCI  16
SLAYTON        CLEAR     19  16  90 SW7       30.04S WCI   9
$$
MNZ065>067-074>077-082>085-091>093-180500-
   South Central Minnesota

CITY           SKY/WX    TMP DP  RH WIND       PRES   REMARKS
MANKATO        FAIR      22  13  68 W5        30.08R WCI  16
NEW ULM        CLEAR     18  10  73 CALM      30.07R
ST JAMES       CLEAR     19  14  79 SW12      30.08S WCI   7
FAIRMONT       CLEAR     19  16  88 SW12      30.09R WCI   7
GLENCOE        FAIR      21  11  67 CALM      30.05S
FARIBAULT      FAIR      16   9  73 CALM      30.06S
OWATONNA       FAIR      18  12  79 SW6       30.06R WCI   9
WASECA         FAIR      14  10  85 S5        30.09R WCI   6
ALBERT LEA     FAIR      21  18  86 SW5       30.07R WCI  15
$$
MNZ078>079-086>088-094>096-180500-
   Southeast Minnesota

CITY           SKY/WX    TMP DP  RH WIND       PRES   REMARKS
ROCHESTER      FAIR      17  15  92 SW10      30.06R WCI   5
RED WING       FAIR      25   7  46 W6        30.06S WCI  18
STANTON        FAIR      20   8  61 W3        30.05S
DODGE CENTER   FAIR      18  12  79 W5        30.06R WCI  11
WINONA         FAIR      27  19  74 W3        30.06R
AUSTIN         FAIR      21  19  93 SW6       30.07S WCI  14
PRESTON        FAIR      23  20  87 W10       30.07S WCI  13
$$
ABBREVIATIONS USED IN REMARKS
   TC - TEMPERATURES IN CELSIUS
  WCI - WIND CHILL INDEX
   HX - HEAT INDEX
  VSB - VISIBILITY
$$



USA.gov is the U.S. government's official web portal to all federal, state and local government web resources and services.